Weather History for KMCF - August, 2013

Change the Weather History Date:

Saturday, August 24, 2013

  Actual Average Record
Temperature  
Mean Temperature 84 °F -  
Max Temperature 93 °F 88 °F 96 °F (2014)
Min Temperature 75 °F 73 °F 72 °F (2012)
Cooling Degree Days 19    
Growing Degree Days 34 (Base 50)    
Moisture  
Dew Point 77 °F    
Average Humidity 87    
Maximum Humidity 100    
Minimum Humidity 59    
Precipitation  
Precipitation 0.00 in - - ()
Sea Level Pressure  
Sea Level Pressure 30.07 in    
Wind  
Wind Speed 6 mph (ESE)    
Max Wind Speed 16 mph    
Max Gust Speed -    
Visibility 10 miles    
Events      
Averages and records for this station are not official NWS values.
T = Trace of Precipitation, MM = Missing Value Source: NWS Daily Summary

Daily Weather History Graph

Daily Weather History Graph

Search for Another Location

Airport or City:

Trip Planner

Search our weather history database for the weather conditions in past years. The results will help you decide how hot, cold, wet, or windy it might be!

Date:

Astronomy

Aug. 24, 2013 Rise Set
Actual Time 7:05 AM EDT 7:59 PM EDT
Civil Twilight 6:40 AM EDT 8:23 PM EDT
Nautical Twilight 6:12 AM EDT 8:51 PM EDT
Astronomical Twilight 5:43 AM EDT 9:20 PM EDT
Moon 10:20 PM EDT (8/24) 10:37 AM EDT (8/24)
Length of Visible Light 13h 42m
Length of Day
12h 54m
Waning Gibbous, 84% of the Moon is Illuminated
Aug 24
Waning Gibbous
Aug 28
Last Quarter
Sep 5
New
Sep 12
First Quarter
Sep 19
Full

Hourly Weather History & Observations

Time (EDT) Temp. Heat Index Dew Point Humidity Pressure Visibility Wind Dir Wind Speed Gust Speed Precip Events Conditions
12:58 AM 75.9 °F - 75.9 °F 100% 30.03 in 10.0 mi SE 4.6 mph - N/A   Clear
1:58 AM 75.7 °F - 75.7 °F 100% 30.03 in 10.0 mi ESE 5.8 mph - N/A   Clear
2:58 AM 76.3 °F - 76.3 °F 100% 30.02 in 10.0 mi ESE 4.6 mph - N/A   Clear
3:58 AM 76.1 °F - 75.6 °F 98% 30.02 in 10.0 mi SE 5.8 mph - N/A   Clear
4:58 AM 76.5 °F - 76.5 °F 100% 30.02 in 10.0 mi ESE 4.6 mph - N/A   Clear
5:58 AM 76.5 °F - 76.5 °F 100% 30.02 in 10.0 mi SE 4.6 mph - N/A   Clear
6:58 AM 75.6 °F - 75.6 °F 100% 30.03 in 10.0 mi East 3.5 mph - N/A   Clear
7:58 AM 77.0 °F - 77.0 °F 100% 30.05 in 10.0 mi ESE 4.6 mph - N/A   Clear
8:58 AM 82.2 °F 91.9 °F 78.6 °F 89% 30.07 in 10.0 mi SE 4.6 mph - N/A   Clear
9:58 AM 84.0 °F 95.6 °F 78.8 °F 84% 30.09 in 10.0 mi SSE 9.2 mph - N/A   Clear
10:58 AM 87.1 °F 103.2 °F 80.1 °F 80% 30.11 in 10.0 mi South 5.8 mph - N/A   Clear
11:58 AM 88.5 °F 104.1 °F 79.2 °F 74% 30.10 in 10.0 mi Variable 4.6 mph - N/A   Clear
12:58 PM 91.0 °F 107.6 °F 79.0 °F 68% 30.09 in 10.0 mi SSW 5.8 mph - N/A   Partly Cloudy
1:58 PM 91.9 °F 106.6 °F 77.9 °F 63% 30.08 in 10.0 mi Variable 4.6 mph - N/A   Clear
2:58 PM 92.3 °F 106.9 °F 77.5 °F 62% 30.06 in 10.0 mi SW 5.8 mph - N/A   Clear
3:58 PM 93.0 °F 106.7 °F 76.6 °F 59% 30.05 in 10.0 mi WNW 5.8 mph - N/A   Clear
4:58 PM 88.2 °F 100.7 °F 77.4 °F 70% 30.04 in 10.0 mi North 8.1 mph - N/A   Clear
5:58 PM 85.8 °F 97.3 °F 77.4 °F 76% 30.04 in 10.0 mi North 10.4 mph - N/A   Scattered Clouds
6:58 PM 78.8 °F - 75.2 °F 89% 30.08 in 10.0 mi East 16.1 mph - N/A   Overcast
7:08 PM 78.8 °F - 75.2 °F 89% 30.06 in 10.0 mi East 11.5 mph - N/A   Overcast
7:58 PM 77.4 °F - 75.2 °F 93% 30.08 in 10.0 mi ENE 10.4 mph - N/A   Mostly Cloudy
8:58 PM 77.7 °F - 75.6 °F 93% 30.10 in 10.0 mi ESE 5.8 mph - N/A   Mostly Cloudy
9:58 PM 76.8 °F - 75.6 °F 96% 30.11 in 10.0 mi SE 6.9 mph - N/A   Scattered Clouds
10:58 PM 76.6 °F - 75.4 °F 96% 30.12 in 10.0 mi ESE 4.6 mph - N/A   Clear
11:33 PM 77.0 °F - 75.2 °F 94% 30.13 in 10.0 mi SE 6.9 mph - N/A   Mostly Cloudy
11:58 PM 76.6 °F - 76.1 °F 98% 30.14 in 10.0 mi SE 5.8 mph - N/A   Overcast